[[{"header":{"parameterUnit":"m.s-1","parameterCategory":1,"la1":30.2991,"la2":30.254,"lo1":-89.0895,"lo2":-89.0444,"dy":0.0017,"dx":0.0017,"nx":28,"ny":28,"refTime":"2024-07-13T09:00:00:Z","depth":0,"parameterNumber":2,"parameterNumberName":"U-component_of_WINDS"},"data":[0,0,0,0,0,0,0,0,0,0,0,0,0,0,0,0,0,0,0,0,0,0,0,0,0,0,0,0,0,0,0,0,0,0,0,0,0,0,0,0,0,0,0,0,0,0,0,0,0,0,0,0,0,0,0,0,0,0,2.2401,2.2403,0,2.2586,2.2588,2.259,2.2636,2.2635,2.2633,2.2632,2.2822,2.2827,2.2834,0,0,0,0,0,0,0,0,0,0,0,0,0,2.2089,2.2094,2.2401,2.2403,2.2405,2.2585,2.2588,2.259,2.2636,2.2635,2.2633,2.2632,2.2819,2.2827,2.2834,0,0,0,0,0,0,0,0,0,0,0,0,0,2.2244,2.2096,2.24,2.245,2.2456,2.2585,2.2588,2.2591,2.2636,2.2635,2.2633,2.2631,2.2817,2.2826,2.2835,2.2928,0,0,2.2863,2.2867,0,0,0,0,0,0,0,0,2.2235,2.2255,2.244,2.2447,2.2454,2.2586,2.2547,2.2704,2.2637,2.2568,2.2632,2.263,2.2745,2.276,2.2798,2.2937,2.2945,2.2864,2.287,2.2874,2.2876,0,0,0,0,0,0,0,2.2224,2.2247,2.2474,2.2443,2.2451,2.2463,2.2483,2.2577,2.2664,2.2574,2.2577,2.2599,2.2748,2.2789,2.2803,2.2947,2.2864,2.2872,2.2878,2.2881,2.3174,2.3176,0,0,0,0,0,0,2.2205,2.2238,2.2468,2.2479,2.2338,2.247,2.2493,2.2545,2.2663,2.2679,2.26,2.26,2.2774,2.2792,2.281,2.2928,2.2874,2.2882,2.2888,2.3171,2.3174,2.3177,0,0,0,0,0,0,2.2198,2.2225,2.2461,2.236,2.2391,2.2478,2.2536,2.255,2.2591,2.2683,2.2699,2.2626,2.2774,2.2797,2.2899,2.2935,2.2886,2.2895,2.3169,2.3172,2.3175,2.3163,0,0,0,0,0,0,2.2189,2.2222,2.2258,2.236,2.2396,2.2546,2.2538,2.2555,2.2607,2.2609,2.2712,2.2727,2.2774,2.2885,2.2908,2.2947,2.2902,2.3166,2.317,2.3174,2.316,2.3165,2.3169,0,0,0,0,0,2.2177,2.2246,2.2259,2.2287,2.2442,2.2548,2.2568,2.2621,2.261,2.2647,2.2706,2.2724,2.2927,2.2895,2.2921,2.2963,2.3164,2.3169,2.3174,2.3158,2.3164,2.3169,0,0,0,0,0,0,2.2144,2.226,2.2276,2.238,2.2454,2.2555,2.2603,2.2625,2.2703,2.2702,2.2764,2.2787,2.2885,2.2934,2.2896,2.306,2.3045,2.3056,2.3024,2.3031,2.3035,2.3022,2.291,0,0,0,0,0,2.2149,2.2225,2.2322,2.2405,2.2441,2.2516,2.2563,2.2598,2.2677,2.2708,2.2775,2.2851,2.2932,2.2984,2.3064,2.3168,2.3192,2.321,2.3214,2.3218,2.3226,2.3287,2.3296,2.3193,2.3193,2.3193,0,0,2.216,2.2233,2.2277,2.24,2.2461,2.2539,2.2541,2.2623,2.2682,2.272,2.2821,2.2873,2.2962,2.3065,2.3114,2.311,2.326,2.3224,2.3226,2.3233,2.3293,2.3303,2.3311,2.3197,2.3196,2.3195,0,0,2.2219,2.2281,2.2358,2.242,2.2513,2.2562,2.2581,2.268,2.2716,2.2818,2.2849,2.292,2.3058,2.3121,2.3171,2.3256,2.3276,2.328,2.3304,2.3363,2.3371,2.3378,2.341,2.3421,2.3289,2.3289,2.3289,0,2.2221,2.2339,2.2394,2.2475,2.2529,2.2569,2.2648,2.2705,2.2819,2.2855,2.2848,2.3024,2.3086,2.3206,2.3227,2.3266,2.329,2.3269,2.3365,2.3373,2.3381,2.3412,2.3424,2.3289,2.3289,2.3289,2.3289,0,2.2337,2.2419,2.2469,2.258,2.2639,2.2718,2.2786,2.284,2.287,2.2921,2.3025,2.3102,2.3199,2.323,2.3259,2.3355,2.3349,2.3353,2.3339,2.339,2.342,2.3433,2.3289,2.3289,2.3289,2.3289,0,0,2.238,2.2521,2.2539,2.259,2.2697,2.2761,2.2843,2.2938,2.2984,2.3061,2.3132,2.3249,2.3254,2.3311,2.3348,2.3399,2.3464,2.3397,2.34,2.3408,2.3576,2.3573,2.3586,2.3478,2.348,2.3482,2.3569,0,2.2453,2.2601,2.2654,2.2775,2.2852,2.2892,2.2964,2.3037,2.3087,2.316,2.3215,2.3298,2.3297,2.3332,2.3384,2.3445,2.3499,2.3439,2.3545,2.3548,2.3522,2.3601,2.3598,2.3676,2.3581,2.3583,2.3584,0,2.2558,2.2639,2.2768,2.2867,2.2901,2.2964,2.3057,2.3126,2.3211,2.3244,2.3308,2.3342,2.343,2.3411,2.3534,2.3493,2.3539,2.3576,2.358,2.3593,2.357,2.3617,2.3702,2.3714,2.3603,2.3602,2.3601,0,2.2578,2.2718,2.2815,2.2857,2.2975,2.3018,2.3069,2.3152,2.3207,2.3288,2.3324,2.3414,2.3464,2.3533,2.3591,2.3572,2.3709,2.3695,2.374,2.3739,2.3767,2.3765,2.3862,2.3796,2.3796,2.3795,2.3795,0,2.2655,2.2732,2.2825,2.2884,2.2973,2.3034,2.3121,2.3174,2.3248,2.3319,2.3359,2.3425,2.3497,2.3572,2.3618,2.3714,2.3736,2.3765,2.3777,2.3762,2.3759,2.3794,2.379,2.3799,2.3798,2.3797,2.3797,0,2.2691,2.2756,2.2864,2.2967,2.2995,2.3056,2.3145,2.3205,2.3257,2.3346,2.3371,2.3453,2.3544,2.3609,2.3725,2.3756,2.386,2.387,2.3831,2.3837,2.3879,2.3875,2.4003,2.4024,2.3943,2.3943,2.3944,0,2.2736,2.2798,2.2908,2.2959,2.301,2.309,2.3147,2.321,2.3267,2.3369,2.3417,2.3511,2.3589,2.3733,2.3803,2.3894,2.3907,2.3946,2.3921,2.3905,2.391,2.3905,2.3913,2.395,2.395,2.3951,2.3951,0,2.281,2.284,2.2919,2.3011,2.3078,2.3153,2.3229,2.3268,2.3344,2.3407,2.3501,2.3562,2.3682,2.3775,2.3873,2.3926,2.3952,2.3959,2.3974,2.396,2.3936,2.3951,2.3843,2.3956,2.3955,2.3955,2.3955,2.3954,2.2853,2.291,2.2997,2.3086,2.3149,2.322,2.3281,2.3342,2.3422,2.3525,2.3557,2.3655,2.374,2.3874,2.3929,2.4007,2.4005,2.4027,2.4032,2.4037,2.4037,2.3923,2.4024,2.4024,2.4024,2.4024,2.4024,0,2.2929,2.2988,2.3069,2.3174,2.3244,2.3263,2.3348,2.3406,2.3491,2.3569,2.3646,2.3755,2.3846,2.3924,2.4019,2.4066,2.4081,2.4089,2.4087,2.4099,2.4033,2.4011,2.4076,2.4076,2.4076,2.4076,2.4076,2.4076,2.2977,2.3076,2.3116,2.3247,2.3305,2.3402,2.3449,2.3515,2.3577,2.3697,2.3774,2.3824,2.3903,2.4004,2.4089,2.4109,2.4143,2.4149,2.4172,2.4109,2.4103,2.4097,2.4077,2.4155,2.4155,2.4232,2.4233,2.4233]},{"header":{"parameterUnit":"m.s-1","parameterCategory":1,"la1":30.2991,"la2":30.254,"lo1":-89.0895,"lo2":-89.0444,"dy":0.0017,"dx":0.0017,"nx":28,"ny":28,"refTime":"2024-07-13T09:00:00:Z","depth":0,"parameterNumber":3,"parameterNumberName":"V-component_of_WINDS"},"data":[0,0,0,0,0,0,0,0,0,0,0,0,0,0,0,0,0,0,0,0,0,0,0,0,0,0,0,0,0,0,0,0,0,0,0,0,0,0,0,0,0,0,0,0,0,0,0,0,0,0,0,0,0,0,0,0,0,0,0.5049,0.5049,0,0.4978,0.4977,0.4977,0.4939,0.4939,0.4939,0.4939,0.4863,0.4861,0.4859,0,0,0,0,0,0,0,0,0,0,0,0,0,0.5149,0.5147,0.505,0.5049,0.5048,0.4978,0.4977,0.4976,0.4939,0.4939,0.4939,0.4939,0.4864,0.4861,0.4859,0,0,0,0,0,0,0,0,0,0,0,0,0,0.5094,0.5146,0.505,0.5021,0.5018,0.4979,0.4977,0.4976,0.4939,0.4939,0.4939,0.4939,0.4864,0.4861,0.4859,0.4842,0,0,0.4849,0.4848,0,0,0,0,0,0,0,0,0.5097,0.5091,0.5026,0.5023,0.5019,0.4968,0.4984,0.4931,0.4939,0.4969,0.4939,0.4939,0.4898,0.4892,0.4879,0.4838,0.4835,0.4849,0.4847,0.4846,0.4845,0,0,0,0,0,0,0,0.5101,0.5093,0.5021,0.5025,0.5021,0.501,0.5002,0.4974,0.4934,0.4966,0.4963,0.4956,0.4896,0.4882,0.4877,0.4834,0.4849,0.4847,0.4845,0.4844,0.4772,0.4772,0,0,0,0,0,0,0.511,0.5097,0.5023,0.5019,0.5059,0.5008,0.5,0.4984,0.4935,0.4927,0.4956,0.4954,0.4887,0.488,0.4874,0.4849,0.4846,0.4843,0.4842,0.4772,0.4772,0.4772,0,0,0,0,0,0,0.5112,0.5104,0.5026,0.5057,0.5046,0.5007,0.499,0.4983,0.4969,0.4927,0.4919,0.4949,0.4886,0.4878,0.4849,0.4846,0.4842,0.4839,0.4773,0.4772,0.4772,0.48,0,0,0,0,0,0,0.5115,0.5105,0.51,0.5057,0.5045,0.5005,0.4989,0.4981,0.4964,0.4961,0.4918,0.4911,0.4886,0.4854,0.4846,0.4841,0.4837,0.4773,0.4773,0.4772,0.4799,0.4801,0.4802,0,0,0,0,0,0.5119,0.511,0.51,0.5091,0.5038,0.5005,0.4998,0.4969,0.4964,0.4957,0.493,0.4912,0.4847,0.4851,0.4843,0.4837,0.4773,0.4773,0.4772,0.4799,0.4801,0.4802,0,0,0,0,0,0,0.5153,0.5104,0.5092,0.5069,0.5042,0.4999,0.4989,0.4973,0.4945,0.4944,0.4909,0.4899,0.4873,0.4852,0.4858,0.4816,0.4808,0.4806,0.4831,0.4833,0.4834,0.4839,0.4835,0,0,0,0,0,0.5157,0.5136,0.5095,0.5079,0.5065,0.503,0.5015,0.4995,0.4964,0.4952,0.4923,0.4893,0.4865,0.4848,0.482,0.4796,0.4785,0.4787,0.4789,0.479,0.4789,0.4771,0.4771,0.4771,0.4771,0.4771,0,0,0.5167,0.5138,0.5127,0.5084,0.5061,0.5038,0.502,0.4997,0.4979,0.4948,0.492,0.4897,0.486,0.4833,0.482,0.4815,0.4786,0.479,0.4791,0.4789,0.4771,0.4771,0.4771,0.4771,0.4771,0.4771,0,0,0.5173,0.515,0.5133,0.5109,0.5073,0.5049,0.5045,0.5004,0.4988,0.4958,0.4934,0.4911,0.4865,0.484,0.4821,0.4814,0.4796,0.4806,0.4813,0.4797,0.4797,0.4797,0.4792,0.4792,0.4804,0.4804,0.4805,0,0.5189,0.5155,0.5126,0.5104,0.5085,0.5056,0.5037,0.5015,0.4972,0.4958,0.4953,0.4893,0.4867,0.4833,0.4831,0.4817,0.4809,0.481,0.48,0.4799,0.4798,0.4794,0.4793,0.4806,0.4806,0.4805,0.4805,0,0.5176,0.5152,0.5142,0.5102,0.5081,0.5061,0.5027,0.501,0.4991,0.4967,0.4936,0.4903,0.4868,0.4858,0.484,0.482,0.4817,0.4807,0.4798,0.48,0.4795,0.4793,0.4808,0.4807,0.4807,0.4806,0,0,0.5201,0.5143,0.514,0.512,0.5078,0.5058,0.5035,0.5001,0.4986,0.4956,0.4935,0.4895,0.4884,0.4862,0.4841,0.4827,0.4821,0.4817,0.4815,0.4817,0.4794,0.4802,0.4801,0.4809,0.4808,0.4808,0.4796,0,0.52,0.5159,0.5131,0.5101,0.5077,0.5048,0.5028,0.4998,0.4974,0.4949,0.4923,0.4895,0.4883,0.4869,0.4854,0.4825,0.4815,0.4825,0.4786,0.4786,0.4796,0.4798,0.4807,0.4798,0.4794,0.4794,0.4794,0,0.5193,0.5165,0.5132,0.509,0.5079,0.5061,0.5026,0.5003,0.4968,0.4951,0.4926,0.4904,0.4876,0.487,0.483,0.4837,0.4819,0.4802,0.4801,0.4796,0.479,0.4792,0.4794,0.4793,0.4791,0.4791,0.4791,0,0.5213,0.5167,0.514,0.5124,0.5075,0.5063,0.5041,0.5006,0.4986,0.4955,0.4941,0.4907,0.4888,0.4861,0.4829,0.4827,0.4791,0.4783,0.4775,0.4775,0.4768,0.4769,0.4767,0.4759,0.4759,0.4759,0.4759,0,0.5214,0.5195,0.5148,0.5132,0.5109,0.5076,0.5053,0.5028,0.4997,0.4974,0.4946,0.4925,0.4885,0.4857,0.4832,0.4801,0.4793,0.4777,0.4771,0.4779,0.4781,0.4767,0.4766,0.4758,0.4758,0.4758,0.4758,0,0.5233,0.5201,0.517,0.5126,0.5114,0.5098,0.5059,0.5041,0.5015,0.4986,0.4977,0.4936,0.4903,0.4868,0.4822,0.4805,0.4775,0.4766,0.4787,0.4783,0.4777,0.4777,0.4764,0.476,0.4756,0.4756,0.4756,0,0.5235,0.522,0.5173,0.5156,0.5135,0.5108,0.5088,0.5053,0.5033,0.499,0.4977,0.4941,0.4911,0.4858,0.4823,0.4788,0.4777,0.4775,0.4772,0.478,0.4775,0.4776,0.4773,0.4776,0.4776,0.4777,0.4777,0,0.5242,0.5227,0.5199,0.5165,0.5142,0.5113,0.5083,0.5071,0.503,0.5008,0.4974,0.495,0.4903,0.4867,0.4827,0.4803,0.4782,0.4778,0.4774,0.4782,0.4795,0.4786,0.4789,0.4779,0.4778,0.4778,0.4778,0.4778,0.5251,0.5235,0.52,0.5169,0.5143,0.5115,0.5095,0.5067,0.5038,0.4998,0.4979,0.4944,0.4906,0.485,0.4826,0.4796,0.479,0.4785,0.4784,0.4783,0.4784,0.48,0.4789,0.4789,0.4789,0.4788,0.4788,0,0.5256,0.5231,0.5203,0.5162,0.5137,0.5121,0.5086,0.5066,0.5036,0.5003,0.4974,0.4933,0.4897,0.4859,0.4821,0.4804,0.4794,0.4795,0.4796,0.479,0.4792,0.4799,0.4804,0.4804,0.4804,0.4804,0.4804,0.4804,0.5255,0.5226,0.5206,0.5163,0.5138,0.5104,0.5085,0.5059,0.5032,0.4988,0.4959,0.4934,0.4898,0.4857,0.4822,0.4812,0.4798,0.4802,0.4789,0.4791,0.479,0.4789,0.4795,0.48,0.48,0.4789,0.4789,0.4789]}]]